GW3846 Weather Reports


time (UTC)temp
C
wind
direction
speed
KPH
gust
KPH
rain 1hr
cm
rain 24hr
cm
rain mn
cm
humidity
%
barometer
mb
20260504050555 6 286 0.0 0.0 0.00 0.00 0.00 75 1009.9
20260504050019 6 286 0.0 0.0 0.00 0.00 0.00 74 1009.9
20260504045554 6 286 0.0 0.0 0.00 0.00 0.00 73 1009.8
20260504045036 6 286 0.0 0.0 0.00 0.00 0.00 73 1009.9
20260504044549 6 286 0.0 0.0 0.00 0.00 0.00 73 1009.9
20260504044029 6 286 0.0 0.0 0.00 0.00 0.00 73 1009.9
20260504043505 6 286 0.0 0.0 0.00 0.00 0.00 73 1009.9
20260504043025 6 286 0.0 0.0 0.00 0.00 0.00 72 1009.9
20260504042557 6 286 0.0 0.0 0.00 0.00 0.00 72 1009.9
20260504042036 6 286 0.0 0.0 0.00 0.00 0.00 72 1009.9
20260504041514 6 286 0.0 0.0 0.00 0.00 0.00 72 1010.0
20260504041045 6 286 0.0 0.0 0.00 0.00 0.00 73 1010.0
20260504040524 6 286 0.0 0.0 0.00 0.00 0.00 72 1010.2
20260504040036 6 286 0.0 0.0 0.00 0.00 0.00 72 1010.3
20260504035513 6 286 0.0 1.6 0.00 0.00 0.00 72 1010.4
20260504035036 6 286 0.0 1.6 0.00 0.00 0.00 73 1010.3
20260504034507 6 286 0.0 0.0 0.00 0.00 0.00 72 1010.3
20260504034028 6 286 0.0 0.0 0.00 0.00 0.00 73 1010.3
20260504033508 5 286 0.0 0.0 0.00 0.00 0.00 73 1010.3
20260504033026 5 286 0.0 0.0 0.00 0.00 0.00 73 1010.2
20260504032600 5 286 0.0 0.0 0.00 0.00 0.00 73 1010.1
20260504032502 5 286 0.0 0.0 0.00 0.00 0.00 73 1010.2
20260504032021 5 286 0.0 0.0 0.00 0.00 0.00 74 1010.0
20260504031541 5 286 0.0 0.0 0.00 0.00 0.00 73 1010.1
20260504031019 5 286 0.0 0.0 0.00 0.00 0.00 73 1009.9
20260504030540 5 286 0.0 0.0 0.00 0.00 0.00 72 1009.9
20260504030025 5 286 0.0 0.0 0.00 0.00 0.00 71 1009.9
20260504025536 5 286 0.0 1.6 0.00 0.00 0.00 71 1009.8
20260504025012 5 286 0.0 1.6 0.00 0.00 0.00 70 1009.9
20260504024532 6 286 0.0 0.0 0.00 0.00 0.00 69 1009.8
20260504024008 6 286 0.0 0.0 0.00 0.00 0.00 68 1009.7
20260504023529 6 286 0.0 0.0 0.00 0.00 0.00 67 1009.8
20260504023008 6 286 0.0 0.0 0.00 0.00 0.00 66 1009.7
20260504022527 6 286 0.0 0.0 0.00 0.00 0.00 65 1009.7
20260504022005 6 286 0.0 0.0 0.00 0.00 0.00 65 1009.7
20260504021533 7 286 0.0 0.0 0.00 0.00 0.00 64 1009.8
20260504021010 7 286 0.0 1.6 0.00 0.00 0.00 63 1009.7
20260504020530 7 286 0.0 3.2 0.00 0.00 0.00 63 1009.9
20260504020046 7 286 0.0 3.2 0.00 0.00 0.00 62 1009.8
20260504015530 7 286 0.0 0.0 0.00 0.00 0.00 62 1009.8
20260504015047 7 286 0.0 0.0 0.00 0.00 0.00 62 1009.8
20260504014530 7 286 0.0 1.6 0.00 0.00 0.00 60 1009.6
20260504014009 8 286 0.0 1.6 0.00 0.00 0.00 59 1009.5
20260504013532 8 286 0.0 0.0 0.00 0.00 0.00 58 1009.6
20260504013004 8 286 0.0 0.0 0.00 0.00 0.00 58 1009.7
20260504012522 8 286 0.0 0.0 0.00 0.00 0.00 57 1009.7
20260504012056 8 286 0.0 3.2 0.00 0.00 0.00 56 1009.7
20260504011518 8 286 0.0 3.2 0.00 0.00 0.00 56 1009.7
20260504011049 8 286 0.0 1.6 0.00 0.00 0.00 56 1009.7
20260504010510 8 286 0.0 3.2 0.00 0.00 0.00 55 1009.6
20260504010050 8 286 0.0 3.2 0.00 0.00 0.00 54 1009.5
20260504005510 9 294 0.0 3.2 0.00 0.00 0.00 53 1009.6
20260504005040 9 294 0.0 1.6 0.00 0.00 0.00 53 1009.5
20260504004555 9 294 0.0 4.8 0.00 0.00 0.00 52 1009.4
20260504004037 10 294 0.0 4.8 0.00 0.00 0.00 52 1009.4
20260504003554 10 328 0.0 9.7 0.00 0.00 0.00 51 1009.4
20260504003045 10 323 0.0 14.5 0.00 0.00 0.00 52 1009.3
20260504002551 10 342 1.6 11.3 0.00 0.00 0.00 50 1009.2
20260504002034 10 355 1.6 8.0 0.00 0.00 0.00 50 1009.2
20260504001551 10 325 1.6 14.5 0.00 0.00 0.00 49 1009.1
20260504001016 10 292 4.8 14.5 0.00 0.00 0.00 48 1009.1
20260504000549 10 298 1.6 9.7 0.00 0.00 0.00 48 1009.2
20260504000032 10 355 3.2 4.8 0.00 0.00 0.00 47 1009.1
20260503235549 10 292 0.0 11.3 0.00 0.00 0.00 46 1009.0
20260503235033 10 325 3.2 11.3 0.00 0.00 0.00 45 1009.0
20260503234549 10 284 1.6 12.9 0.00 0.00 0.00 45 1008.9
20260503234024 11 323 3.2 12.9 0.00 0.00 0.00 45 1008.8
20260503233545 11 321 3.2 11.3 0.00 0.00 0.00 45 1008.8
20260503233019 11 294 1.6 14.5 0.00 0.00 0.00 43 1008.7
20260503232536 11 333 4.8 19.3 0.00 0.00 0.00 43 1008.7
20260503232014 11 340 4.8 19.3 0.00 0.00 0.00 42 1008.7
20260503231532 11 325 3.2 12.9 0.00 0.00 0.00 42 1008.7
20260503231013 11 293 3.2 14.5 0.00 0.00 0.00 40 1008.7
20260503230527 11 18 3.2 14.5 0.00 0.00 0.00 41 1008.6
20260503230100 11 301 4.8 12.9 0.00 0.00 0.00 40 1008.6
20260503225520 12 355 3.2 14.5 0.00 0.00 0.00 40 1008.5
20260503225037 12 341 3.2 14.5 0.00 0.00 0.00 40 1008.4
20260503224514 12 360 3.2 9.7 0.00 0.00 0.00 41 1008.3
20260503224034 12 338 3.2 9.7 0.00 0.00 0.00 38 1008.3
20260503223521 12 310 3.2 16.1 0.00 0.00 0.00 37 1008.2
20260503223052 12 336 4.8 22.5 0.00 0.00 0.00 37 1008.0
20260503222513 12 300 3.2 8.0 0.00 0.00 0.00 37 1008.2
20260503222047 12 344 3.2 22.5 0.00 0.00 0.00 36 1008.1
20260503221510 12 18 3.2 24.1 0.00 0.00 0.00 37 1008.1
20260503221048 13 320 8.0 24.1 0.00 0.00 0.00 35 1008.2
20260503220531 13 279 6.4 17.7 0.00 0.00 0.00 37 1008.0
20260503220055 13 317 4.8 14.5 0.00 0.00 0.00 36 1008.1
20260503215530 13 345 4.8 20.9 0.00 0.00 0.00 36 1008.0
20260503215009 13 302 6.4 22.5 0.00 0.00 0.00 34 1008.0
20260503214531 13 287 8.0 22.5 0.00 0.00 0.00 35 1007.9
20260503214009 13 5 1.6 11.3 0.00 0.00 0.00 35 1007.9
20260503213529 13 298 3.2 11.3 0.00 0.00 0.00 35 1007.9
20260503213014 12 335 1.6 12.9 0.00 0.00 0.00 36 1008.1
20260503212544 12 296 4.8 24.1 0.00 0.00 0.00 34 1008.0
20260503212024 13 277 8.0 24.1 0.00 0.00 0.00 34 1008.0
20260503211539 13 345 4.8 19.3 0.00 0.00 0.00 35 1008.1
20260503211020 13 334 4.8 19.3 0.00 0.00 0.00 36 1008.1
20260503210535 13 298 6.4 17.7 0.00 0.00 0.00 36 1008.0
20260503210011 13 292 3.2 22.5 0.00 0.00 0.00 35 1008.1
20260503205534 13 300 8.0 22.5 0.00 0.00 0.00 33 1008.1
20260503205005 13 262 6.4 19.3 0.00 0.00 0.00 35 1008.1
20260503204543 13 300 1.6 19.3 0.00 0.00 0.00 39 1008.1
20260503204100 12 289 4.8 24.1 0.00 0.00 0.00 37 1008.3
20260503203521 12 255 4.8 17.7 0.00 0.00 0.00 41 1008.3
20260503203102 12 335 8.0 17.7 0.00 0.00 0.00 33 1008.3
20260503202537 13 339 4.8 19.3 0.00 0.00 0.00 37 1008.3
20260503202049 13 301 3.2 25.7 0.00 0.00 0.00 36 1008.2
20260503201534 12 326 4.8 25.7 0.00 0.00 0.00 38 1008.3
20260503201048 12 301 4.8 25.7 0.00 0.00 0.00 40 1008.3
20260503200530 12 5 4.8 19.3 0.00 0.00 0.00 35 1008.2
20260503200049 12 324 8.0 16.1 0.00 0.00 0.00 37 1008.4
20260503195527 12 307 4.8 16.1 0.00 0.00 0.00 37 1008.4
20260503195045 12 339 8.0 17.7 0.00 0.00 0.00 41 1008.5
20260503194525 12 285 6.4 17.7 0.00 0.00 0.00 37 1008.5
20260503194004 12 322 4.8 20.9 0.00 0.00 0.00 40 1008.6
20260503193524 12 281 6.4 20.9 0.00 0.00 0.00 39 1008.6
20260503193106 12 284 6.4 17.7 0.00 0.00 0.00 37 1008.7
20260503192535 12 331 3.2 16.1 0.00 0.00 0.00 44 1008.8
20260503192048 12 348 4.8 20.9 0.00 0.00 0.00 42 1008.9
20260503191525 12 296 8.0 20.9 0.00 0.00 0.00 43 1008.9
20260503191059 11 300 4.8 16.1 0.00 0.00 0.00 40 1008.9
20260503191004 11 263 3.2 16.1 0.00 0.00 0.00 43 1009.0
20260503190531 11 326 3.2 16.1 0.00 0.00 0.00 45 1009.1
20260503190007 11 318 4.8 16.1 0.00 0.00 0.00 42 1009.2
20260503185543 11 343 3.2 17.7 0.00 0.00 0.00 45 1009.3
20260503185019 11 325 4.8 17.7 0.00 0.00 0.00 42 1009.4
20260503184542 11 300 1.6 16.1 0.00 0.00 0.00 45 1009.5
20260503184013 11 5 4.8 19.3 0.00 0.00 0.00 43 1009.6
20260503183533 10 293 4.8 19.3 0.00 0.00 0.00 42 1009.6
20260503183013 11 327 3.2 17.7 0.00 0.00 0.00 44 1009.8
20260503182549 11 360 3.2 19.3 0.00 0.00 0.00 46 1009.7
20260503182009 11 301 3.2 20.9 0.00 0.00 0.00 46 1009.7
20260503181545 10 360 3.2 20.9 0.00 0.00 0.00 49 1009.8
20260503181025 10 270 3.2 19.3 0.00 0.00 0.00 51 1010.0
20260503180554 10 20 4.8 19.3 0.00 0.00 0.00 45 1010.1
20260503180037 10 349 6.4 16.1 0.00 0.00 0.00 45 1009.9
20260503175503 10 348 3.2 12.9 0.00 0.00 0.00 47 1009.9
20260503175043 10 296 3.2 12.9 0.00 0.00 0.00 46 1010.0
20260503174559 10 338 3.2 12.9 0.00 0.00 0.00 48 1010.1
20260503174501 10 348 3.2 12.9 0.00 0.00 0.00 48 1010.1
20260503174039 9 11 1.6 12.9 0.00 0.00 0.00 50 1010.1
20260503173517 9 328 3.2 17.7 0.00 0.00 0.00 47 1010.0
20260503173033 9 355 3.2 17.7 0.00 0.00 0.00 47 1010.2
20260503172515 9 340 4.8 19.3 0.00 0.00 0.00 46 1010.2
20260503172049 8 342 4.8 19.3 0.00 0.00 0.00 49 1010.3
20260503171510 8 343 1.6 12.9 0.00 0.00 0.00 51 1010.3
20260503171039 8 292 4.8 12.9 0.00 0.00 0.00 51 1010.4
20260503170553 8 360 3.2 9.7 0.00 0.00 0.00 52 1010.5
20260503150541 7 285 3.2 24.1 0.00 0.00 0.00 60 1011.0
20260503131018 6 332 1.6 8.0 0.00 0.00 0.00 68 1011.3
20260503130552 6 295 1.6 14.5 0.00 0.00 0.00 71 1011.4
20260503110546 3 290 3.2 11.3 0.00 0.00 0.00 80 1010.9
20260503081512 2 290 0.0 4.8 0.00 0.03 0.00 85 1010.8
20260503081046 2 296 0.0 3.2 0.00 0.03 0.00 84 1010.8
20260503080522 2 275 0.0 1.6 0.00 0.03 0.00 84 1010.9
20260503072512 2 284 0.0 0.0 0.00 0.03 0.00 82 1011.0
20260503072050 2 284 0.0 0.0 0.00 0.03 0.00 82 1011.0
20260503071511 2 284 0.0 3.2 0.00 0.03 0.00 82 1011.0